GW2591 Weather Reports


time (UTC)temp
F
wind
direction
speed
knots
gust
knots
rain 1hr
in
rain 24hr
in
rain mn
in
humidity
%
barometer
mb
20260508185434 52 202 3.5 9.6 0.00 0.12 0.12 85 1010.6
20260508184931 52 207 7.0 11.3 0.00 0.12 0.12 85 1010.6
20260508184429 52 213 5.2 9.6 0.00 0.12 0.12 85 1010.8
20260508183925 51 199 5.2 12.2 0.00 0.12 0.12 85 1010.6
20260508183422 51 217 4.3 7.8 0.02 0.12 0.12 85 1010.5
20260508182917 52 214 6.1 8.7 0.07 0.12 0.12 85 1010.6
20260508182415 52 238 4.3 7.8 0.02 0.11 0.11 85 1010.7
20260508181909 52 223 7.0 12.2 0.02 0.11 0.11 83 1010.8
20260508181407 53 237 4.3 12.2 0.02 0.11 0.11 83 1010.9
20260508180904 53 225 6.1 13.0 0.05 0.11 0.11 82 1011.1
20260508180401 54 218 5.2 12.2 0.02 0.10 0.10 81 1010.9
20260508175857 54 224 4.3 9.6 0.00 0.10 0.10 78 1010.8
20260508175353 55 234 6.1 9.6 0.02 0.10 0.10 77 1010.8
20260508174852 54 232 4.3 12.2 0.02 0.10 0.10 76 1010.6
20260508174349 55 276 10.4 13.0 0.00 0.09 0.09 73 1011.1
20260508173845 55 254 5.2 8.7 0.00 0.09 0.09 73 1010.9
20260508173342 55 222 5.2 9.6 0.00 0.09 0.09 71 1010.5
20260508172837 55 231 3.5 11.3 0.00 0.09 0.09 71 1010.8
20260508172335 56 223 3.5 9.6 0.00 0.09 0.09 72 1010.8
20260508171832 56 200 3.5 12.2 0.00 0.09 0.09 74 1010.7
20260508171328 55 159 3.5 13.0 0.00 0.09 0.09 74 1011.0
20260508170825 55 212 11.3 13.0 0.00 0.09 0.09 75 1011.0
20260508170323 54 207 5.2 13.9 0.00 0.09 0.09 75 1011.2
20260508165819 54 233 6.1 11.3 0.00 0.09 0.09 74 1011.3
20260508165317 52 215 7.0 13.0 0.00 0.09 0.09 77 1011.4
20260508164812 52 222 4.3 8.7 0.00 0.09 0.09 79 1011.4
20260508164309 52 211 3.5 9.6 0.02 0.09 0.09 78 1011.4
20260508163808 51 209 2.6 10.4 0.05 0.09 0.09 79 1011.4
20260508163305 51 209 3.5 10.4 0.05 0.09 0.09 77 1011.7
20260508162800 52 222 3.5 10.4 0.02 0.09 0.09 76 1011.9
20260508162257 52 225 6.1 9.6 0.02 0.08 0.08 75 1012.1
20260508161754 52 216 4.3 9.6 0.02 0.08 0.08 74 1011.9
20260508161251 53 218 3.5 7.8 0.00 0.08 0.08 74 1012.1
20260508160749 53 253 9.6 13.9 0.00 0.08 0.08 71 1012.2
20260508160248 53 229 5.2 10.4 0.00 0.08 0.08 72 1012.1
20260508155744 53 252 7.8 13.9 0.00 0.08 0.08 70 1012.1
20260508155241 53 259 4.3 11.3 0.00 0.08 0.08 71 1012.1
20260508154737 53 227 6.1 10.4 0.00 0.08 0.08 69 1011.8
20260508154235 53 241 7.8 13.0 0.00 0.08 0.08 69 1012.0
20260508153731 53 246 8.7 12.2 0.00 0.08 0.08 71 1012.0
20260508153229 53 248 8.7 11.3 0.00 0.08 0.08 70 1011.9
20260508152725 53 250 8.7 13.9 0.00 0.08 0.08 69 1012.0
20260508152221 53 249 7.0 10.4 0.00 0.08 0.08 71 1011.8
20260508151718 53 251 7.0 15.6 0.00 0.08 0.08 70 1011.7
20260508151214 53 261 11.3 17.4 0.00 0.08 0.08 68 1011.8
20260508150711 53 261 15.6 17.4 0.00 0.08 0.08 68 1011.8
20260508150208 54 238 14.8 14.8 0.00 0.08 0.08 68 1011.9
20260508145703 54 240 12.2 14.8 0.00 0.08 0.08 67 1011.9
20260508145200 54 239 7.8 15.6 0.00 0.08 0.08 68 1011.9
20260508144658 54 243 9.6 14.8 0.00 0.08 0.08 67 1011.9
20260508144155 54 241 3.5 13.0 0.00 0.08 0.08 69 1011.9
20260508143653 53 259 5.2 15.6 0.00 0.08 0.08 69 1012.0
20260508143150 53 250 7.8 17.4 0.00 0.08 0.08 69 1011.8
20260508142645 53 249 7.0 13.9 0.00 0.08 0.08 68 1011.6
20260508142143 53 225 6.1 11.3 0.00 0.08 0.08 71 1011.9
20260508141639 53 239 14.8 17.4 0.00 0.08 0.08 69 1012.0
20260508141137 53 251 7.0 19.1 0.00 0.08 0.08 69 1012.0
20260508140634 53 248 7.0 13.0 0.00 0.08 0.08 69 1012.0
20260508140131 53 249 10.4 11.3 0.00 0.08 0.08 71 1011.6
20260508135626 53 235 10.4 14.8 0.00 0.08 0.08 68 1011.7
20260508135122 53 261 4.3 13.9 0.00 0.08 0.08 69 1011.9
20260508134619 52 249 17.4 17.4 0.00 0.08 0.08 68 1012.0
20260508134116 52 252 13.0 14.8 0.00 0.08 0.08 68 1012.0
20260508133613 52 246 9.6 13.9 0.00 0.08 0.08 67 1012.0
20260508133110 52 265 9.6 16.5 0.00 0.08 0.08 68 1012.0
20260508132608 52 259 6.1 9.6 0.00 0.08 0.08 69 1011.9
20260508132105 52 256 9.6 13.9 0.00 0.08 0.08 68 1011.9
20260508131600 52 249 8.7 13.0 0.00 0.08 0.08 68 1012.0
20260508131057 52 254 11.3 13.9 0.00 0.08 0.08 68 1011.8
20260508130554 52 264 11.3 14.8 0.00 0.08 0.08 68 1012.2
20260508130050 52 289 7.0 14.8 0.00 0.08 0.08 68 1012.0
20260508125546 52 251 9.6 18.2 0.00 0.08 0.08 68 1012.1
20260508125044 52 261 13.9 19.1 0.00 0.08 0.08 66 1012.0
20260508124542 51 259 11.3 13.0 0.00 0.08 0.08 69 1012.1
20260508124038 50 238 4.3 11.3 0.00 0.08 0.08 70 1011.8
20260508123537 50 238 3.5 10.4 0.00 0.08 0.08 70 1012.0
20260508123033 50 248 7.8 9.6 0.00 0.08 0.08 71 1011.9
20260508122530 49 252 5.2 11.3 0.00 0.08 0.08 71 1012.0
20260508122027 49 249 7.0 10.4 0.00 0.08 0.08 72 1011.9
20260508121526 49 227 3.5 7.8 0.00 0.08 0.08 72 1011.8
20260508121023 49 261 6.1 9.6 0.00 0.08 0.08 71 1011.9
20260508120520 49 239 6.1 13.0 0.00 0.08 0.08 71 1011.9
20260508120019 48 238 9.6 9.6 0.00 0.08 0.08 72 1012.0
20260508115516 48 242 6.1 11.3 0.00 0.08 0.08 73 1011.9
20260508115012 48 241 3.5 7.8 0.00 0.08 0.08 73 1011.8
20260508114509 48 230 4.3 10.4 0.00 0.08 0.08 72 1011.6
20260508114005 48 220 4.3 8.7 0.00 0.08 0.08 72 1011.7
20260508113503 48 237 4.3 9.6 0.00 0.08 0.08 72 1011.6
20260508113000 48 230 2.6 7.0 0.00 0.08 0.08 72 1011.5
20260508112457 48 218 3.5 7.8 0.00 0.08 0.08 71 1011.3
20260508111954 48 228 2.6 7.0 0.00 0.08 0.08 71 1011.2
20260508111450 48 202 4.3 7.8 0.00 0.08 0.08 71 1011.1
20260508110948 48 205 4.3 7.0 0.00 0.08 0.08 71 1011.2
20260508110445 47 221 6.1 9.6 0.00 0.08 0.08 72 1010.9
20260508105945 47 216 3.5 9.6 0.00 0.08 0.08 72 1010.9
20260508105441 47 225 2.6 8.7 0.00 0.08 0.08 72 1010.9
20260508104939 47 221 4.3 12.2 0.00 0.08 0.08 72 1010.9
20260508104436 47 211 6.1 14.8 0.00 0.08 0.08 74 1011.0
20260508103933 47 213 5.2 11.3 0.00 0.08 0.08 74 1011.0
20260508103430 46 210 2.6 11.3 0.00 0.08 0.08 74 1010.9
20260508102927 46 221 5.2 11.3 0.00 0.08 0.08 76 1011.1
20260508102425 46 214 6.1 12.2 0.00 0.08 0.08 77 1010.9
20260508101922 45 205 5.2 9.6 0.00 0.08 0.08 78 1010.9
20260508101420 45 202 6.1 7.0 0.00 0.08 0.08 79 1010.9
20260508100916 45 208 5.2 8.7 0.00 0.08 0.08 80 1011.0
20260508100416 45 206 6.1 7.8 0.00 0.08 0.08 80 1011.0
20260508095911 45 205 6.1 7.8 0.00 0.08 0.08 81 1010.9
20260508095409 45 194 5.2 7.8 0.00 0.08 0.08 81 1011.1
20260508094905 45 193 2.6 6.1 0.00 0.08 0.08 81 1011.0
20260508094402 45 197 3.5 6.1 0.00 0.08 0.08 82 1011.3
20260508093859 45 159 2.6 5.2 0.00 0.08 0.08 82 1011.1
20260508093357 45 204 4.3 6.1 0.00 0.08 0.08 81 1011.2
20260508092854 45 190 4.3 6.1 0.00 0.08 0.08 81 1011.2
20260508092352 46 184 2.6 6.1 0.00 0.08 0.08 81 1011.1
20260508091850 46 198 4.3 7.0 0.00 0.08 0.08 80 1011.2
20260508091346 46 201 6.1 7.8 0.00 0.08 0.08 80 1011.1
20260508090844 46 177 2.6 5.2 0.00 0.08 0.08 79 1011.1
20260508090342 46 192 3.5 7.0 0.00 0.08 0.08 79 1011.2
20260508085837 47 202 2.6 7.0 0.00 0.08 0.08 79 1011.2
20260508085334 47 181 3.5 6.1 0.00 0.08 0.08 79 1011.3
20260508084831 46 188 1.7 6.1 0.00 0.08 0.08 79 1011.2
20260508084328 46 134 2.6 6.1 0.00 0.08 0.08 79 1011.1
20260508083826 46 183 2.6 6.1 0.00 0.08 0.08 79 1011.2
20260508083323 46 190 4.3 7.8 0.00 0.08 0.08 79 1011.2
20260508082822 46 188 5.2 7.8 0.00 0.08 0.08 80 1011.1
20260508082320 46 120 1.7 5.2 0.00 0.08 0.08 80 1011.1
20260508081817 46 180 1.7 6.1 0.00 0.08 0.08 81 1011.4
20260508081314 46 182 2.6 4.3 0.00 0.08 0.08 81 1011.3
20260508080811 46 174 4.3 6.1 0.00 0.08 0.08 81 1011.3
20260508080309 46 208 0.9 6.1 0.00 0.08 0.08 81 1011.4
20260508075805 46 186 2.6 8.7 0.00 0.08 0.08 80 1011.4
20260508075307 46 156 3.5 10.4 0.00 0.08 0.08 80 1011.4
20260508074801 46 191 3.5 7.0 0.00 0.08 0.08 81 1011.3
20260508074257 46 194 3.5 6.1 0.00 0.08 0.08 81 1011.4
20260508073754 46 180 2.6 7.8 0.00 0.08 0.08 80 1011.4
20260508073252 46 181 1.7 7.0 0.00 0.08 0.08 80 1011.6
20260508072748 47 200 4.3 8.7 0.00 0.08 0.08 80 1011.5
20260508072245 46 205 5.2 8.7 0.00 0.08 0.08 81 1011.5
20260508071742 47 212 7.0 9.6 0.00 0.08 0.08 81 1011.7
20260508071241 47 196 3.5 5.2 0.00 0.08 0.08 81 1011.6
20260508070737 46 217 1.7 2.6 0.02 0.08 0.08 82 1011.7
20260508070236 46 206 2.6 7.0 0.02 0.08 0.08 83 1011.8
20260508065733 46 215 1.7 4.3 0.00 0.07 0.07 84 1011.9
20260508065231 46 207 4.3 6.1 0.00 0.07 0.07 85 1011.7
20260508064728 46 198 1.7 6.1 0.00 0.07 0.07 85 1011.6
20260508064227 46 183 3.5 8.7 0.00 0.07 0.07 85 1011.7
20260508063723 46 201 3.5 7.0 0.00 0.07 0.07 85 1011.6
20260508063221 46 200 6.1 9.6 0.09 0.07 0.07 84 1011.8
20260508062718 46 209 11.3 15.6 0.12 0.07 0.07 83 1011.7
20260508062216 46 158 4.3 10.4 0.00 0.06 0.06 83 1011.8
20260508061713 46 205 6.1 10.4 0.00 0.06 0.06 83 1011.8
20260508061210 46 199 4.3 9.6 0.00 0.06 0.06 83 1012.0
20260508060706 46 213 8.7 9.6 0.00 0.06 0.06 83 1011.9
20260508060204 46 201 10.4 10.4 0.00 0.06 0.06 82 1012.0
20260508055659 46 207 8.7 12.2 0.00 0.06 0.06 83 1012.2
20260508055156 46 208 8.7 10.4 0.00 0.06 0.06 83 1012.1
20260508054653 46 203 4.3 11.3 0.00 0.06 0.06 83 1012.1
20260508054151 46 200 7.8 9.6 0.00 0.06 0.06 83 1012.2
20260508053647 46 210 8.7 9.6 0.00 0.06 0.06 82 1012.2
20260508053145 46 206 5.2 9.6 0.00 0.06 0.06 82 1012.2
20260508052642 46 174 3.5 9.6 0.00 0.06 0.06 83 1012.2
20260508052139 47 197 7.0 13.0 0.00 0.06 0.06 82 1012.1
20260508051635 47 197 7.8 10.4 0.00 0.06 0.06 82 1012.2
20260508051131 47 210 8.7 14.8 0.00 0.06 0.06 82 1012.1
20260508050627 47 200 4.3 13.0 0.00 0.06 0.06 81 1012.2
20260508050125 47 213 11.3 14.8 0.05 0.06 0.06 81 1012.3
20260508045620 46 214 5.2 13.9 0.12 0.06 0.06 82 1012.0
20260508045119 47 208 8.7 13.9 0.05 0.04 0.04 80 1012.5
20260508044615 47 256 9.6 13.0 0.05 0.04 0.04 78 1013.2
20260508044111 47 271 4.3 7.8 0.07 0.03 0.03 79 1013.0
20260508043608 47 279 3.5 5.2 0.07 0.03 0.03 78 1013.1
20260508043106 48 251 2.6 13.0 0.02 0.02 0.02 77 1013.2
20260508042602 47 327 5.2 6.1 0.02 0.02 0.02 77 1012.9
20260508042100 48 331 1.7 3.5 0.02 0.02 0.02 78 1012.8
20260508041556 48 212 0.9 3.5 0.00 0.01 0.01 74 1012.7
20260508041052 48 181 2.6 5.2 0.05 0.01 0.01 74 1012.7
20260508040549 48 177 1.7 5.2 0.09 0.01 0.01 74 1012.5
20260508040047 48 210 3.5 7.0 0.05 0.00 0.00 72 1012.9
20260508035543 49 210 3.5 9.6 0.00 0.00 0.00 68 1012.4
20260508035041 49 204 5.2 8.7 0.00 0.00 0.00 67 1012.4
20260508034538 48 353 0.9 5.2 0.00 0.00 0.00 68 1012.2
20260508034035 48 191 2.6 4.3 0.00 0.00 0.00 69 1012.1
20260508033532 47 124 0.9 3.5 0.00 0.00 0.00 72 1012.1
20260508033031 47 198 0.9 2.6 0.00 0.00 0.00 74 1012.2
20260508032527 47 53 0.0 1.7 0.00 0.00 0.00 73 1012.1
20260508032025 48 146 0.9 2.6 0.00 0.00 0.00 71 1012.3
20260508031522 48 122 2.6 5.2 0.00 0.00 0.00 69 1012.4
20260508031017 48 188 2.6 4.3 0.00 0.00 0.00 68 1012.4
20260508030514 48 195 2.6 5.2 0.00 0.00 0.00 64 1012.6
20260508030012 48 164 2.6 4.3 0.00 0.00 0.00 65 1012.3
20260508025508 48 186 1.7 2.6 0.00 0.00 0.00 65 1012.4
20260508025005 48 206 1.7 2.6 0.00 0.00 0.00 65 1012.5
20260508024501 48 85 1.7 5.2 0.00 0.00 0.00 64 1012.7
20260508023958 49 165 1.7 5.2 0.00 0.00 0.00 63 1012.3
20260508023454 49 193 3.5 5.2 0.00 0.00 0.00 63 1012.4
20260508022952 49 125 0.9 2.6 0.00 0.00 0.00 64 1012.6
20260508022447 49 182 2.6 4.3 0.00 0.00 0.00 62 1012.6
20260508021944 50 196 3.5 4.3 0.00 0.00 0.00 62 1012.7
20260508021441 50 178 1.7 3.5 0.00 0.00 0.00 61 1012.6
20260508020936 50 200 2.6 4.3 0.00 0.00 0.00 61 1012.6
20260508020435 50 197 2.6 4.3 0.00 0.00 0.00 61 1012.7
20260508015931 50 199 2.6 4.3 0.00 0.00 0.00 62 1012.7
20260508015429 50 224 2.6 4.3 0.00 0.00 0.00 61 1012.6
20260508014925 50 203 1.7 2.6 0.00 0.00 0.00 60 1012.6
20260508014423 50 204 1.7 3.5 0.00 0.00 0.00 59 1012.5
20260508013918 50 185 0.9 4.3 0.00 0.00 0.00 61 1012.5
20260508013414 51 192 1.7 4.3 0.00 0.00 0.00 59 1012.6
20260508012912 50 200 1.7 7.0 0.00 0.00 0.00 59 1012.5
20260508012409 51 277 4.3 8.7 0.00 0.00 0.00 57 1012.6
20260508011907 50 228 1.7 6.1 0.00 0.00 0.00 61 1012.7
20260508011404 51 240 4.3 6.1 0.00 0.00 0.00 59 1012.5
20260508010901 51 245 6.1 8.7 0.00 0.00 0.00 56 1012.5
20260508010358 51 261 7.8 12.2 0.00 0.00 0.00 55 1012.4
20260508005855 51 252 7.8 13.9 0.00 0.00 0.00 55 1012.4
20260508005352 51 262 10.4 12.2 0.00 0.00 0.00 55 1012.5
20260508004848 51 273 10.4 11.3 0.00 0.00 0.00 56 1012.6
20260508004345 51 237 7.0 9.6 0.00 0.00 0.00 54 1012.4
20260508003841 52 253 7.8 10.4 0.00 0.00 0.00 52 1012.5
20260508003338 52 253 8.7 12.2 0.00 0.00 0.00 50 1012.3
20260508002836 52 271 12.2 16.5 0.00 0.00 0.00 47 1012.4
20260508002332 52 255 7.8 13.0 0.00 0.00 0.00 48 1012.1
20260508001828 53 286 5.2 13.9 0.00 0.00 0.00 46 1012.3
20260508001324 53 287 9.6 17.4 0.00 0.00 0.00 46 1012.4
20260508000821 53 268 4.3 16.5 0.00 0.00 0.00 46 1012.3
20260508000319 53 279 11.3 16.5 0.00 0.00 0.00 46 1012.2
20260507235814 53 253 8.7 17.4 0.00 0.00 0.00 46 1012.2
20260507235312 53 269 11.3 19.1 0.00 0.00 0.00 44 1012.0
20260507234808 53 277 15.6 21.7 0.00 0.00 0.00 43 1011.8
20260507234305 54 262 12.2 23.5 0.00 0.00 0.00 43 1011.9
20260507233801 54 268 7.0 20.0 0.00 0.00 0.00 40 1011.8
20260507233259 55 283 17.4 18.2 0.00 0.00 0.00 38 1012.0
20260507232757 55 322 3.5 16.5 0.00 0.00 0.00 39 1011.9
20260507232253 55 289 8.7 16.5 0.00 0.00 0.00 38 1011.7
20260507231750 55 310 12.2 13.9 0.00 0.00 0.00 36 1011.7
20260507231247 55 245 5.2 11.3 0.00 0.00 0.00 38 1011.6
20260507230743 55 262 9.6 13.0 0.00 0.00 0.00 36 1011.6
20260507230241 56 271 6.1 13.0 0.00 0.00 0.00 40 1011.7
20260507225740 56 301 5.2 16.5 0.00 0.00 0.00 34 1011.6
20260507225237 56 263 7.0 14.8 0.00 0.00 0.00 35 1011.5
20260507224733 56 263 7.8 10.4 0.00 0.00 0.00 33 1011.6
20260507224230 56 262 7.0 12.2 0.00 0.00 0.00 35 1011.7
20260507223726 56 253 8.7 13.9 0.00 0.00 0.00 36 1011.8
20260507223223 56 275 7.0 14.8 0.00 0.00 0.00 34 1011.9
20260507222719 56 257 13.0 21.7 0.00 0.00 0.00 36 1011.7
20260507222216 57 268 11.3 21.7 0.00 0.00 0.00 34 1011.5
20260507221713 57 287 6.1 10.4 0.00 0.00 0.00 32 1011.7
20260507221209 57 285 5.2 9.6 0.00 0.00 0.00 32 1011.7
20260507220706 56 307 2.6 10.4 0.00 0.00 0.00 32 1011.6
20260507220204 56 296 2.6 12.2 0.00 0.00 0.00 33 1011.8
20260507215700 56 280 6.1 10.4 0.00 0.00 0.00 35 1011.8
20260507215157 56 273 8.7 17.4 0.00 0.00 0.00 34 1011.9
20260507214654 58 261 5.2 14.8 0.00 0.00 0.00 33 1011.7
20260507214151 58 269 11.3 14.8 0.00 0.00 0.00 33 1011.6
20260507213647 57 316 9.6 15.6 0.00 0.00 0.00 32 1011.7
20260507213144 56 263 13.0 23.5 0.00 0.00 0.00 33 1011.6
20260507212640 56 313 4.3 21.7 0.00 0.00 0.00 32 1011.8
20260507212137 58 293 3.5 13.0 0.00 0.00 0.00 34 1011.7
20260507211634 56 315 7.8 14.8 0.00 0.00 0.00 36 1011.9
20260507211129 55 304 10.4 18.2 0.00 0.00 0.00 35 1011.6
20260507210628 58 289 13.0 25.2 0.00 0.00 0.00 36 1011.6
20260507210124 57 304 8.7 12.2 0.00 0.00 0.00 33 1011.7
20260507205621 56 295 9.6 19.1 0.00 0.00 0.00 36 1011.8
20260507205117 56 288 13.0 16.5 0.00 0.00 0.00 34 1011.8
20260507204613 57 280 20.9 24.3 0.00 0.00 0.00 33 1011.8
20260507204111 57 271 18.2 21.7 0.00 0.00 0.00 31 1011.7
20260507203609 57 305 4.3 19.1 0.00 0.00 0.00 38 1011.6
20260507203106 56 266 19.1 20.9 0.00 0.00 0.00 34 1011.7
20260507202601 56 283 12.2 19.1 0.00 0.00 0.00 36 1011.8
20260507202058 56 321 13.9 19.1 0.00 0.00 0.00 35 1011.9
20260507201553 55 320 20.9 21.7 0.00 0.00 0.00 38 1011.9
20260507201050 56 288 4.3 16.5 0.00 0.00 0.00 37 1012.2
20260507200545 56 309 8.7 13.0 0.00 0.00 0.00 38 1012.0
20260507200042 55 263 2.6 20.9 0.00 0.00 0.00 35 1012.1
20260507195539 55 338 26.1 26.1 0.00 0.00 0.00 36 1012.1
20260507195037 55 326 18.2 26.9 0.00 0.00 0.00 36 1012.0
20260507194533 55 333 12.2 22.6 0.00 0.00 0.00 36 1012.2
20260507194029 57 300 6.1 16.5 0.00 0.00 0.00 36 1012.1
20260507193526 56 300 13.0 20.9 0.00 0.00 0.00 33 1012.1
20260507193023 56 299 3.5 14.8 0.00 0.00 0.00 36 1012.1
20260507192519 56 304 6.1 21.7 0.00 0.00 0.00 33 1012.0
20260507192016 57 273 18.2 20.9 0.00 0.00 0.00 38 1012.0
20260507191511 55 308 8.7 19.1 0.00 0.00 0.00 41 1012.2
20260507191009 55 316 17.4 19.1 0.00 0.00 0.00 37 1012.3
20260507190506 55 310 7.0 18.2 0.00 0.00 0.00 38 1012.2
20260507190006 55 320 10.4 20.9 0.00 0.00 0.00 39 1012.2
20260507185502 56 312 9.6 21.7 0.00 0.00 0.00 36 1012.4